Wetbulb
42.32 41.98 42.00 41.27 40.71 40.96 40.36 40.27 40.13 40.34 40.44 40.62 40.01 38.73 38.29 37.89 37.09 37.09 37.32 36.83 36.12 35.68 35.45 35.22 35.06 34.44 33.72 33.05 32.16 32.05 32.65 33.23
42.14 41.85 41.40 40.81 40.62 40.34 39.14 38.90 39.01 38.80 38.41 37.67 37.63 36.54 36.59 36.40 36.72 36.97 36.99 36.45 36.12 35.71 35.14 34.83 34.43 33.47 33.14 32.82 32.10 30.66 32.40 32.83
40.99 40.99 40.87 39.88 39.28 39.23 38.58 38.46 38.43 38.47 38.14 37.65 37.50 36.73 36.87 36.17 36.37 36.60 36.53 36.17 36.11 35.45 34.89 34.04 33.85 32.10 33.09 32.47 31.48 28.47 31.09 31.62
40.02 39.77 39.59 39.47 38.68 38.24 38.01 37.98 38.12 38.22 38.11 37.44 36.85 36.78 36.20 34.70 34.98 35.25 35.68 36.10 36.06 35.92 35.35 34.37 33.55 32.39 32.00 32.05 30.57 28.06 26.76 30.98
40.53 39.66 39.03 38.79 38.24 38.20 38.23 37.53 38.22 37.83 37.39 35.94 34.40 33.05 32.01 33.34 34.00 35.13 35.47 36.20 36.12 36.13 35.47 34.43 33.42 33.06 32.10 31.87 30.97 28.75 28.34 26.51
40.11 39.58 39.20 38.68 38.28 38.42 38.76 37.75 37.51 36.58 36.24 35.54 34.06 33.17 33.39 34.04 34.18 34.50 34.94 35.92 36.32 35.93 35.34 34.32 32.98 32.69 32.45 31.72 29.80 28.06 28.07 27.33
40.43 39.61 38.86 38.35 37.97 38.02 38.38 36.86 35.78 35.87 35.61 34.81 33.74 32.66 32.22 32.24 32.71 33.03 33.81 34.80 35.38 35.83 34.99 34.11 33.21 32.28 31.57 29.88 28.53 28.32 27.74 27.93
38.94 38.27 37.88 37.79 37.04 36.57 37.59 35.31 34.45 34.95 34.47 34.23 33.53 32.93 32.77 32.20 32.48 32.86 32.81 33.25 34.01 34.50 34.45 32.98 32.15 32.09 31.32 29.16 28.77 28.95 28.26 27.88
38.90 38.46 38.45 37.96 36.97 35.91 34.87 34.20 33.72 34.00 33.82 33.48 33.32 32.90 32.84 33.15 33.09 33.15 33.25 33.37 34.03 35.08 33.81 32.46 31.54 31.88 31.33 30.35 30.09 29.25 29.00 29.52
38.60 38.64 38.58 37.90 37.29 35.96 34.16 33.51 33.05 33.21 32.96 33.18 32.28 32.68 32.63 32.42 32.86 33.71 33.57 34.22 34.02 34.33 33.34 31.54 30.70 31.39 30.97 29.56 29.22 28.40 28.37 29.26
38.51 38.48 37.89 37.85 37.57 35.70 34.42 33.22 32.47 32.22 32.48 32.62 32.02 32.20 32.45 32.58 32.98 32.08 32.67 33.71 33.49 33.36 32.15 30.91 29.88 30.85 30.93 29.59 29.36 29.34 27.61 28.54
38.41 38.00 37.62 37.54 37.19 34.55 33.69 33.35 32.08 32.35 32.28 32.28 31.82 31.67 31.96 31.91 31.52 31.51 31.50 32.31 31.89 31.26 31.01 29.37 28.81 29.34 30.32 29.39 29.67 29.22 27.36 27.59
38.59 37.61 36.86 36.11 34.95 33.51 33.16 33.05 32.90 32.42 32.26 31.96 31.18 31.35 31.04 30.25 30.01 30.41 30.67 29.92 30.68 29.31 29.02 28.63 28.36 28.59 29.48 29.23 29.52 28.28 27.04 26.55
36.96 36.34 35.84 34.82 33.49 32.96 32.74 32.77 32.49 32.28 31.65 30.95 30.40 30.07 29.15 28.48 28.70 29.04 29.06 28.45 28.23 28.33 28.24 27.48 27.45 27.85 28.05 29.87 29.46 27.66 27.28 26.87
36.12 35.81 35.99 34.24 33.05 32.96 32.10 32.06 32.55 31.72 30.55 30.21 29.13 28.86 27.89 27.66 27.68 27.52 27.31 27.41 27.09 27.36 27.65 27.48 27.52 27.41 28.47 30.72 28.71 27.69 26.97 26.74
35.42 35.43 34.92 33.49 32.62 32.42 31.90 31.83 31.69 30.95 29.55 29.10 28.59 28.66 27.99 27.47 27.06 26.71 26.92 26.78 26.66 27.21 26.91 26.95 27.39 27.85 28.35 29.78 28.13 27.32 26.46 26.13
35.43 35.11 33.25 32.49 32.07 31.72 31.27 30.64 30.09 30.28 29.12 28.14 28.91 28.20 27.41 26.87 26.53 26.24 26.15 26.31 26.32 26.73 26.07 26.27 26.46 26.89 29.49 28.99 27.37 26.80 26.60 25.39
35.20 33.96 33.49 33.17 32.47 31.99 30.77 30.05 29.90 29.18 28.83 28.39 28.08 27.76 26.60 26.35 26.38 25.89 25.35 25.49 26.10 25.97 26.49 26.67 26.17 26.80 28.85 28.70 27.00 27.11 26.21 25.69
35.22 34.20 33.68 33.07 32.59 31.67 31.11 29.71 28.98 28.71 28.43 27.92 27.91 27.23 26.38 26.66 26.19 25.44 25.12 25.81 25.49 25.73 26.33 26.40 26.09 26.08 28.00 28.15 26.78 27.23 26.82 26.52
MSLP
1029.88 1030.38 1030.74 1031.19 1031.58 1031.51 1031.28 1031.08 1031.12 1030.99 1030.51 1030.19 1030.12 1030.09 1030.02 1029.97 1029.62 1029.44 1029.10 1028.78 1028.63 1028.21 1027.70 1027.35 1026.83 1026.19 1025.67 1025.42 1024.88 1024.44 1023.46 1022.53
1029.98 1030.46 1030.87 1031.29 1031.57 1031.43 1031.35 1031.29 1031.65 1031.33 1030.62 1030.24 1030.03 1029.99 1030.12 1029.99 1029.72 1029.55 1029.23 1028.96 1028.58 1028.09 1027.76 1027.35 1027.05 1026.69 1026.19 1025.75 1025.13 1024.57 1023.39 1022.96
1029.85 1030.34 1030.75 1031.19 1031.47 1031.39 1031.54 1031.60 1031.92 1031.61 1031.00 1030.72 1030.56 1030.42 1030.31 1030.34 1030.00 1029.70 1029.46 1029.21 1028.90 1028.42 1028.14 1027.63 1027.32 1027.19 1026.37 1025.92 1025.45 1025.00 1024.13 1023.40
1029.41 1029.96 1030.58 1031.14 1031.38 1031.49 1031.71 1031.89 1031.98 1031.80 1031.46 1030.92 1030.67 1030.53 1030.35 1030.12 1029.78 1029.59 1029.50 1029.37 1029.01 1028.59 1028.31 1027.88 1027.55 1027.28 1026.61 1026.13 1025.84 1025.55 1024.73 1023.70
1029.02 1029.65 1030.45 1031.06 1031.42 1031.69 1031.86 1032.03 1031.96 1031.92 1031.73 1031.26 1031.20 1030.90 1030.52 1030.43 1030.19 1029.90 1029.62 1029.36 1028.91 1028.62 1028.36 1028.04 1027.57 1027.19 1026.71 1026.27 1026.04 1025.86 1025.33 1024.38
1028.56 1029.42 1030.36 1031.04 1031.40 1031.66 1031.93 1032.12 1032.17 1032.20 1031.94 1031.88 1031.57 1031.20 1031.05 1030.82 1030.47 1030.03 1029.53 1029.07 1028.71 1028.51 1028.24 1028.02 1027.54 1027.23 1026.88 1026.43 1026.24 1026.02 1025.56 1025.02
1028.53 1029.56 1030.48 1030.91 1031.37 1031.67 1031.96 1032.22 1032.32 1032.30 1032.22 1032.18 1031.96 1031.63 1031.25 1030.87 1030.50 1030.03 1029.57 1029.09 1028.68 1028.55 1028.35 1028.00 1027.62 1027.29 1026.98 1026.84 1026.55 1026.00 1025.51 1025.04
1028.39 1029.42 1030.18 1030.74 1031.23 1031.62 1032.06 1032.28 1032.34 1032.40 1032.38 1032.27 1032.14 1031.81 1031.49 1031.05 1030.63 1030.18 1029.68 1029.22 1028.78 1028.62 1028.44 1028.07 1027.69 1027.44 1027.13 1026.91 1026.35 1025.75 1025.38 1024.90
1028.23 1029.23 1029.89 1030.57 1031.23 1031.70 1032.13 1032.26 1032.33 1032.49 1032.55 1032.42 1032.23 1032.05 1031.51 1031.07 1030.67 1030.27 1029.77 1029.48 1029.06 1028.80 1028.56 1028.24 1027.88 1027.50 1027.11 1026.70 1026.05 1025.63 1025.26 1024.75
1028.10 1029.10 1029.82 1030.55 1031.18 1031.72 1032.11 1032.27 1032.43 1032.62 1032.68 1032.51 1032.25 1031.98 1031.54 1031.07 1030.79 1030.42 1030.02 1029.70 1029.33 1028.92 1028.67 1028.33 1027.94 1027.50 1027.06 1026.74 1026.04 1025.57 1025.22 1024.62
1028.10 1028.94 1029.76 1030.51 1031.17 1031.82 1032.20 1032.38 1032.54 1032.74 1032.74 1032.58 1032.24 1031.96 1031.62 1031.19 1030.92 1030.65 1030.29 1029.91 1029.57 1029.13 1028.82 1028.47 1028.04 1027.49 1026.97 1026.59 1025.83 1025.27 1025.00 1024.48
1027.87 1028.90 1029.77 1030.49 1031.20 1031.75 1032.18 1032.46 1032.65 1032.77 1032.78 1032.61 1032.39 1032.08 1031.79 1031.37 1031.17 1030.95 1030.51 1030.13 1029.84 1029.50 1029.04 1028.69 1028.22 1027.61 1027.00 1026.34 1025.66 1025.04 1024.68 1024.22
1027.89 1028.94 1029.79 1030.53 1031.20 1031.83 1032.20 1032.59 1032.80 1032.88 1032.94 1032.71 1032.43 1032.18 1031.83 1031.46 1031.32 1031.09 1030.78 1030.41 1030.07 1029.82 1029.37 1028.84 1028.40 1027.75 1027.02 1026.21 1025.47 1024.87 1024.41 1023.91
1028.16 1029.07 1029.77 1030.50 1031.26 1031.88 1032.28 1032.72 1032.86 1033.01 1033.02 1032.79 1032.43 1032.30 1031.96 1031.68 1031.48 1031.22 1031.03 1030.81 1030.37 1029.94 1029.47 1028.99 1028.48 1027.88 1027.08 1026.03 1025.29 1024.70 1024.23 1023.77
1028.07 1028.95 1029.72 1030.49 1031.28 1031.89 1032.37 1032.78 1032.92 1033.08 1033.07 1032.85 1032.59 1032.42 1032.15 1031.93 1031.78 1031.49 1031.30 1031.04 1030.56 1030.08 1029.57 1029.17 1028.69 1028.06 1026.95 1025.96 1025.19 1024.61 1024.12 1023.65
1027.90 1028.79 1029.63 1030.45 1031.22 1031.88 1032.47 1032.74 1032.96 1033.14 1033.15 1033.03 1032.78 1032.57 1032.34 1032.09 1031.78 1031.67 1031.45 1031.14 1030.77 1030.31 1029.82 1029.37 1028.83 1027.93 1027.03 1026.10 1025.24 1024.57 1024.05 1023.60
1027.85 1028.79 1029.67 1030.37 1031.10 1031.79 1032.50 1032.87 1033.05 1033.16 1033.18 1033.14 1032.97 1032.74 1032.51 1032.21 1031.98 1031.76 1031.48 1031.18 1030.83 1030.47 1030.00 1029.48 1028.90 1028.11 1027.23 1026.29 1025.54 1024.64 1024.03 1023.67
1027.72 1028.71 1029.60 1030.34 1031.12 1031.88 1032.56 1032.96 1033.14 1033.17 1033.19 1033.16 1033.06 1032.92 1032.68 1032.52 1032.29 1031.98 1031.69 1031.34 1030.88 1030.48 1030.00 1029.53 1028.96 1028.28 1027.43 1026.44 1025.70 1024.77 1024.12 1023.68
1027.81 1028.75 1029.72 1030.59 1031.28 1032.17 1032.85 1033.10 1033.25 1033.26 1033.26 1033.31 1033.25 1033.09 1032.89 1032.68 1032.52 1032.19 1031.91 1031.52 1031.03 1030.56 1030.05 1029.65 1029.02 1028.46 1027.67 1026.73 1025.80 1024.82 1024.21 1023.69
Wind_Speed
9 8 8 7 5 7 9 9 10 8 5 4 5 6 6 7 8 9 11 11 13 11 9 11 11 9 10 11 11 10 9 12
9 8 7 5 6 7 9 9 9 7 6 6 6 7 7 7 8 10 11 11 12 11 10 12 12 10 12 12 10 12 9 12
9 8 6 5 6 7 7 8 6 6 5 5 4 6 4 6 7 9 10 11 12 12 12 12 13 10 12 12 12 10 9 10
11 8 6 5 5 7 6 6 5 6 7 5 5 4 4 6 8 8 9 11 11 12 13 12 12 9 9 11 11 11 9 9
11 9 6 5 5 5 5 4 5 5 7 7 8 6 7 7 7 7 8 10 11 11 12 12 12 9 11 10 9 9 8 9
13 10 7 5 4 4 3 3 5 5 7 7 6 7 6 6 6 9 9 10 11 11 12 12 12 10 11 11 10 9 7 6
12 9 7 6 5 4 2 3 5 6 7 7 8 9 9 8 8 8 8 8 9 10 12 12 12 11 12 10 9 9 8 7
13 11 8 6 5 4 2 3 5 6 6 7 8 9 9 9 9 8 10 8 8 10 11 12 11 11 12 11 10 10 8 8
13 11 8 7 5 4 3 2 5 5 6 7 7 9 6 6 8 8 7 8 8 10 10 12 13 12 11 12 9 9 9 7
13 10 7 7 6 4 3 3 4 5 6 6 8 7 8 8 10 9 7 8 8 10 11 12 13 12 12 12 9 10 9 8
12 9 8 6 6 5 4 3 4 4 5 6 6 8 8 8 8 10 10 9 11 11 11 13 13 12 12 12 10 10 10 8
12 9 8 7 7 5 5 3 3 3 5 6 7 8 9 9 9 9 10 10 11 12 12 12 12 12 13 12 11 13 11 10
12 10 9 8 8 6 5 3 2 3 5 6 7 8 9 10 10 10 11 11 11 12 12 12 12 12 13 15 11 14 12 12
12 10 8 8 7 6 5 3 3 4 5 6 7 8 9 10 10 10 11 11 11 12 11 12 12 12 14 16 13 14 12 11
12 9 8 8 7 6 5 4 3 4 5 6 7 8 9 9 9 10 10 10 11 11 12 12 12 12 14 15 15 13 12 11
12 10 9 8 8 6 5 4 3 4 5 6 7 8 8 9 10 10 10 10 10 11 12 12 13 11 12 15 16 12 11 11
12 11 10 9 8 7 5 4 4 4 5 5 7 8 8 10 10 11 10 10 10 10 11 12 13 10 24 24 19 12 12 11
13 12 10 9 9 7 6 5 4 4 4 5 7 8 9 10 10 11 11 11 11 11 12 13 13 14 25 24 21 11 11 11
12 11 10 9 9 7 6 5 4 3 4 5 6 8 8 9 10 11 11 10 10 10 11 13 13 12 25 25 21 13 11 11
Wind_Direction
134 118 97 88 77 52 43 44 34 25 33 45 41 35 27 21 21 19 17 17 14 11 5 0 359 351 359 355 351 354 336 342
139 121 110 113 69 52 45 46 30 13 24 18 17 13 14 18 16 18 17 16 17 13 6 3 0 357 355 354 350 347 348 356
154 137 119 95 73 56 55 50 20 14 22 21 10 3 5 2 8 15 17 14 14 11 7 2 0 355 349 354 351 347 345 2
162 144 122 122 81 59 57 39 355 15 15 18 16 9 358 3 8 9 10 8 9 9 6 2 357 359 344 348 354 350 342 350
162 147 141 132 95 76 61 11 357 27 19 24 18 5 358 3 359 358 358 3 5 6 3 0 358 352 346 344 351 343 343 343
165 153 142 129 103 85 40 328 30 30 32 23 6 6 1 352 353 351 359 359 359 3 1 357 358 353 348 341 347 342 340 325
156 143 143 133 114 100 40 45 59 36 27 19 11 7 358 352 355 352 355 352 354 3 358 358 357 353 350 344 336 333 333 329
155 156 159 150 123 119 111 68 57 34 18 16 8 2 356 355 355 352 349 349 354 358 357 357 353 351 350 343 330 333 328 326
159 158 159 152 146 136 137 91 57 28 15 13 7 2 358 357 354 349 351 347 347 352 353 354 350 348 347 344 344 336 334 316
157 157 154 156 159 152 149 96 65 33 17 8 10 6 3 358 355 356 353 348 344 347 351 351 348 345 346 340 346 343 335 321
156 155 151 155 155 144 132 108 65 36 15 11 11 6 3 3 1 2 355 351 351 345 346 349 346 343 347 335 349 346 337 333
157 152 150 148 151 146 133 125 79 36 12 8 9 6 5 7 3 357 354 352 353 347 346 345 345 342 338 333 339 350 340 334
155 152 151 151 150 144 149 120 76 35 13 14 13 7 6 6 358 355 355 352 350 347 346 346 346 341 337 339 329 345 341 337
152 155 157 150 147 154 140 121 80 43 22 16 18 10 8 6 1 360 358 353 351 351 353 353 346 342 337 333 345 345 340 341
160 160 154 152 154 152 136 118 77 43 30 24 19 14 14 11 7 4 0 354 352 354 356 353 351 342 337 346 349 345 345 345
167 160 152 156 156 144 140 119 75 50 38 28 23 21 21 17 13 5 359 356 355 356 356 354 356 346 343 357 351 348 346 351
163 155 158 162 156 150 147 120 76 71 45 33 24 25 22 21 14 5 360 355 356 358 358 356 359 354 351 0 358 352 351 355
162 160 163 156 154 153 144 114 104 91 48 41 31 25 25 18 11 7 360 355 356 358 358 0 356 1 357 2 1 357 356 359
154 152 147 144 140 136 129 115 118 87 48 48 35 28 23 15 10 7 360 356 357 357 359 3 356 4 359 4 359 359 0 4